Location: Rounton
(54.4000°N, 1.3500°W)
Time: 21:43:03
(UTC+01:00)

YAOGAN 20A - Pass Details

Date: 04 July 2022
Orbit: 891 x 1288 km, 63.4° (Epoch: 18 August)

Event Time Altitude Azimuth Distance (km) Brightness Sun altitude
Rises 00:08:40 0° 309° (NW) 3,785 8.9 -11.6°
Reaches altitude 10° 00:11:11 10° 310° (NW) 2,885 8.2 -11.7°
Maximum altitude 00:18:06 81° 39° (NE) 1,155 5.3 -11.9°
Drops below altitude 10° 00:25:43 10° 127° (SE) 3,161 7.1 -12.1°
Enters shadow 00:27:27 - 128° (SE) 3,764 7.5 -12.2°
